{"data":{"norad_id":56383,"epoch":"2026-09-20T01:23:58.161120Z","epoch_age_seconds":150331,"freshness":"FRESH","line1":"1 56383U 23061K   26263.05831205 -.00000177  00000+0  30921-5 0  9995","line2":"2 56383  43.0014 180.3946 0001019 257.1564 102.9173 15.27576069186478","mean_motion":15.27576069,"eccentricity":0.0001019,"inclination_deg":43.0014,"raan_deg":180.3946,"arg_perigee_deg":257.1564,"mean_anomaly_deg":102.9173,"bstar":3.0921e-6,"rev_number":18647,"period_min":94.266991295738,"perigee_km":482.36171083043,"apogee_km":483.7600229557,"semimajor_km":6861.1978668931,"source":"CELESTRAK","updated_at":"2026-09-21T09:00:33.431780Z"}}